Location: Fasanenhof
(48.7107°N, 9.1590°E)
Time: 19:20:03
(UTC+00:00)

SeaSat 1 - Pass Details

Date: 17 December 2018
Orbit: 744 x 747 km, 108.0° (Epoch: 18 March)

Event Time Altitude Azimuth Distance (km) Brightness Sun altitude
Rises 16:45:21 0° 156° (SSE) 3,173 5.7 -12.0°
Reaches altitude 10° 16:47:37 10° 159° (SSE) 2,254 4.9 -12.3°
Maximum altitude 16:52:30 68° 243° (WSW) 802 2.8 -13.1°
Drops below altitude 10° 16:57:25 10° 327° (NNW) 2,270 5.1 -13.9°
Sets 16:59:43 0° 330° (NNW) 3,198 5.9 -14.2°
